ATLAS 5 CENTAUR DEB, 44685

Orbit data source: Space-Track

ATLAS 5 CENTAUR DEB, 44685 is space debris in HEO originally from a launch on Wed, 17 Oct 2018 UTC launched from the Air Force Eastern Test Range (AFETR). Debris objects in space refer to the collection of defunct objects orbiting the Earth. Examples of debris include non-operational satellites, rocket bodies, and fragments generated from explosions, collisions, or faulty payload assembly.

Loading next visibility...
Identifier
44685, 2018-079AX
Orbit
HEO
Country
Flag of USUS
Related business
Flag of USUnited Launch Alliance/Lockheed Martin (US)
Manufacturer
ULA Decatur
Mission
Spacecraft
Bus & Motor
Unknown
Mass
Unknown
Launch date (UTC)
2018-10-17 (8 years ago)
Launch vehicle
Unknown
Launch site
Air Force Eastern Test Range (AFETR)
Object type
Payload
Rocket body
Debris
Shape & HBR
Unknown shape, 1.1 m
Radar Cross Section
Medium (>0.1 m² and <1 m²)

Expand to show TLE details & history
Last TLE update: 2 days ago

TLE from 2 days ago
0 ATLAS 5 CENTAUR DEB
1 44685U 18079AX  26252.08275825 -.00000132  00000-0  00000-0 0  9993
2 44685  12.7573  68.7815 4527793 246.9051  59.9942  1.69266910 44920
Epoch: 2026-09-09T01:59Z
TLE epoch observation values (Epoch: 2026-09-09T01:59:10.312Z)
Latitude
Longitude
50.95985°
Altitude
22,351.729 km
Speed
3.788 km/s
True Right ascension
04h 35m 34s
True Declination
0° 00' 00"
Sunlit
Object was in daylight at epoch
Visualization orbit readout
Latitude
Unknown
Longitude
Unknown
Altitude
Unknown
Speed
Unknown
Apparent Right ascension
Unknown
Apparent Declination
Unknown
Sunlit
N/A
Visualization observer readout
Local Sidereal Time
05:01:28
Azimuth
Unknown
Elevation
Unknown
Doppler factor
Unknown
Orbital elements
Apogee altitude
36,831.636 km
Perigee altitude
9,897.757 km
Semi-major axis
29,742.833 km
Eccentricity
0.45278
Inclination
12.7573°
RAAN
68.7815°
Arg. of periapsis
246.9051°
True anomaly
113.17755°
Mean anomaly
59.9942°
Eccentric anomaly
85.86915°
Mean motion
0.42313 °/min
Orbital period
850.81 mins
BSTAR
0
Loading maneuver chart data...
Computing Atmospheric mass density...

Documentation

Showing up to 5 results
|